Weather History for VTBD - January, 2013

Change the Weather History Date:

Wednesday, January 9, 2013

  Actual Average Record
Temperature  
Mean Temperature 84 °F -  
Max Temperature 95 °F 89 °F 95 °F (2008)
Min Temperature 73 °F 73 °F 68 °F (1999)
Cooling Degree Days 19    
Growing Degree Days 34 (Base 50)    
Moisture  
Dew Point 69 °F    
Average Humidity 63    
Maximum Humidity 83    
Minimum Humidity 37    
Precipitation  
Precipitation 0.00 in 0.02 in - ()
Sea Level Pressure  
Sea Level Pressure 29.82 in    
Wind  
Wind Speed 2 mph ()    
Max Wind Speed 7 mph    
Max Gust Speed -    
Visibility 3.6 miles    
Events      
Averages and records for this station are not official NWS values.
T = Trace of Precipitation, MM = Missing Value Source: Averaged Metar Reports

Daily Weather History Graph

Daily Weather History Graph

Search for Another Location

Airport or City:

Trip Planner

Search our weather history database for the weather conditions in past years. The results will help you decide how hot, cold, wet, or windy it might be!

Date:

Astronomy

Jan. 09, 2013 Rise Set
Actual Time 6:43 AM ICT 6:05 PM ICT
Civil Twilight 6:21 AM ICT 6:28 PM ICT
Nautical Twilight 5:54 AM ICT 6:54 PM ICT
Astronomical Twilight 5:28 AM ICT 7:21 PM ICT
Moon 3:49 AM ICT (1/9) 3:34 PM ICT (1/9)
Length of Visible Light 12h 07m
Length of Day
11h 21m
Waning Crescent, 10% of the Moon is Illuminated
Jan 9
Waning Crescent
Jan 12
New
Jan 19
First Quarter
Jan 27
Full
Feb 3
Last Quarter

Hourly Weather History & Observations

Time (ICT) Temp. Heat Index Dew Point Humidity Pressure Visibility Wind Dir Wind Speed Gust Speed Precip Events Conditions
12:00 AM 78.8 °F - 68.0 °F 69% 29.83 in 3.7 mi Calm Calm - N/A   Unknown
12:30 AM 77.0 °F - 68.0 °F 74% 29.83 in 3.1 mi Calm Calm - N/A   Mist
1:00 AM 76 °F - 66 °F 65% 29.86 in 3 mi West 3.5 mph - -   Mist
1:00 AM 77.0 °F - 66.2 °F 69% 29.83 in 3.1 mi West 3.5 mph - N/A   Mist
1:30 AM 77.0 °F - 66.2 °F 69% 29.83 in 3.1 mi West 3.5 mph - N/A   Mist
2:00 AM 77.0 °F - 66.2 °F 69% 29.83 in 3.1 mi West 4.6 mph - N/A   Mist
2:30 AM 75.2 °F - 68.0 °F 78% 29.80 in 3.1 mi West 3.5 mph - N/A   Mist
3:00 AM 73.4 °F - 66.2 °F 78% 29.80 in 3.1 mi South 2.3 mph - N/A   Mist
3:30 AM 73.4 °F - 68.0 °F 83% 29.80 in 3.1 mi Calm Calm - N/A   Mist
4:00 AM 75.2 °F - 68.0 °F 78% 29.80 in 3.1 mi ESE 3.5 mph - N/A   Mist
4:30 AM 75.2 °F - 68.0 °F 78% 29.80 in 3.1 mi Calm Calm - N/A   Mist
5:00 AM 73.4 °F - 68.0 °F 83% 29.80 in 3.1 mi ENE 2.3 mph - N/A   Mist
5:30 AM 73.4 °F - 68.0 °F 83% 29.80 in 3.1 mi Calm Calm - N/A   Mist
6:00 AM 73.4 °F - 68.0 °F 83% 29.83 in 3.1 mi Calm Calm - N/A   Mist
6:30 AM 73.4 °F - 68.0 °F 83% 29.83 in 3.1 mi ENE 2.3 mph - N/A   Mist
7:00 AM 74 °F - 68 °F 75% 29.87 in 3 mi Calm Calm - -   Mist
7:00 AM 73.4 °F - 68.0 °F 83% 29.86 in 3.1 mi Calm Calm - N/A   Mist
7:30 AM 73.4 °F - 68.0 °F 83% 29.86 in 3.1 mi East 2.3 mph - N/A   Mist
8:00 AM 75.2 °F - 68.0 °F 78% 29.86 in 3.1 mi East 2.3 mph - N/A   Mist
8:30 AM 78.8 °F - 69.8 °F 74% 29.86 in 2.5 mi East 3.5 mph - N/A   Mist
9:00 AM 78.8 °F - 69.8 °F 74% 29.89 in 2.5 mi East 3.5 mph - N/A   Mist
9:30 AM 82.4 °F 86.3 °F 69.8 °F 66% 29.89 in 2.5 mi East 3.5 mph - N/A   Mist
10:00 AM 84.2 °F 88.4 °F 69.8 °F 62% 29.89 in 2.5 mi Calm Calm - N/A   Haze
10:30 AM 86.0 °F 90.4 °F 69.8 °F 58% 29.89 in 3.1 mi NNE 3.5 mph - N/A   Haze
11:00 AM 87.8 °F 92.6 °F 69.8 °F 55% 29.86 in 3.1 mi ESE 3.5 mph - N/A   Haze
11:30 AM 87.8 °F 92.6 °F 69.8 °F 55% 29.86 in 3.7 mi Calm Calm - N/A   Unknown
12:00 PM 91.4 °F 96.8 °F 69.8 °F 49% 29.83 in 3.7 mi Calm Calm - N/A   Unknown
12:30 PM 91.4 °F 95.4 °F 68.0 °F 46% 29.83 in 3.7 mi East 4.6 mph - N/A   Unknown
1:00 PM 92 °F - 69 °F 37% 29.83 in 4 mi SSW 4.6 mph - -   Haze
1:00 PM 93.2 °F 98.8 °F 69.8 °F 46% 29.80 in 3.7 mi SSW 4.6 mph - N/A   Scattered Clouds
1:30 PM 93.2 °F 98.8 °F 69.8 °F 46% 29.80 in 3.7 mi SE 3.5 mph - N/A   Scattered Clouds
2:00 PM 93.2 °F 96.2 °F 66.2 °F 41% 29.77 in 3.7 mi Calm Calm - N/A   Scattered Clouds
2:30 PM 93.2 °F 96.2 °F 66.2 °F 41% 29.77 in 3.7 mi NE 5.8 mph - N/A   Scattered Clouds
3:00 PM 95.0 °F 101.3 °F 69.8 °F 44% 29.77 in 3.7 mi WSW 3.5 mph - N/A   Scattered Clouds
3:30 PM 95.0 °F 99.5 °F 68.0 °F 41% 29.74 in 3.7 mi WNW 4.6 mph - N/A   Scattered Clouds
4:00 PM 95.0 °F 101.3 °F 69.8 °F 44% 29.74 in 4.3 mi East 6.9 mph - N/A   Scattered Clouds
4:30 PM 95.0 °F 101.3 °F 69.8 °F 44% 29.74 in 4.3 mi East 5.8 mph - N/A   Scattered Clouds
5:00 PM 93.2 °F 97.7 °F 68.0 °F 44% 29.74 in 4.3 mi SE 4.6 mph - N/A   Scattered Clouds
5:30 PM 91.4 °F 95.4 °F 68.0 °F 46% 29.77 in 4.3 mi South 3.5 mph - N/A   Scattered Clouds
6:00 PM 91.4 °F 98.4 °F 71.6 °F 52% 29.77 in 3.7 mi North 6.9 mph - N/A   Unknown
6:30 PM 89.6 °F 98.2 °F 73.4 °F 59% 29.77 in 3.7 mi NW 4.6 mph - N/A   Unknown
7:00 PM 88 °F - 71 °F 48% 29.80 in 4 mi NNW 3.5 mph - -   Haze
7:00 PM 87.8 °F 93.8 °F 71.6 °F 58% 29.77 in 3.7 mi NNW 3.5 mph - N/A   Unknown
7:30 PM 86.0 °F 91.8 °F 71.6 °F 62% 29.80 in 3.7 mi NW 3.5 mph - N/A   Unknown
8:00 PM 84.2 °F 89.6 °F 71.6 °F 66% 29.80 in 3.7 mi NNW 3.5 mph - N/A   Unknown
8:30 PM 84.2 °F 88.4 °F 69.8 °F 62% 29.80 in 5.0 mi ESE 2.3 mph - N/A   Unknown
9:00 PM 84.2 °F 88.4 °F 69.8 °F 62% 29.80 in 5.0 mi Calm Calm - N/A   Unknown
9:30 PM 84.2 °F 88.4 °F 69.8 °F 62% 29.83 in 5.0 mi Calm Calm - N/A   Unknown
10:00 PM 84.2 °F 88.4 °F 69.8 °F 62% 29.83 in 5.0 mi SSW 2.3 mph - N/A   Unknown
10:30 PM 84.2 °F 88.4 °F 69.8 °F 62% 29.83 in 5.0 mi Calm Calm - N/A   Unknown
11:00 PM 82.4 °F 86.3 °F 69.8 °F 66% 29.83 in 5.0 mi East 2.3 mph - N/A   Unknown
11:30 PM 82.4 °F 86.3 °F 69.8 °F 66% 29.83 in 5.0 mi Calm Calm - N/A   Unknown